#timestamp,LO_Frequency,Hit 
1498341615.6,286046906.8,N
1498341635.4,286046906.7,N
1498341655.2,286046906.2,N
1498341675.0,286046904.4,N
1498341675.9,286046904.4,N
1498341695.8,286046906.8,N
1498341715.6,286046904.2,N
1498341735.4,286046903.7,N
1498341755.3,286046906.8,N
1498341775.1,286046906.6,N
1498341795.8,286046904.5,N
1498341815.7,286046902.2,N
1498341835.5,286046902.9,N
1498341855.3,286046904.7,N
1498341875.2,286046904.5,N
1498341895.9,286046902.3,N
1498341915.7,286046903.5,N
1498341935.6,286046901.7,N
1498341955.4,286046902.0,N
1498341975.2,286046899.2,N
1498341995.1,286046899.2,N
1498341996.0,286046899.2,N
1498342015.8,286046900.1,N
1498342035.6,286046900.4,N
1498342055.5,286046898.6,N
1498342075.3,286046898.5,N
1498342095.1,286046896.1,N
1498342115.8,286046898.0,N
1498342135.7,286046898.7,N
1498342155.5,286046898.0,N
1498342175.3,286046898.3,N
1498342195.2,286046898.2,N
1498342215.0,286046896.3,N
1498342215.9,286046896.3,N
1498342235.7,286046896.6,N
1498342255.6,286046896.8,N
1498342275.4,286046897.1,N
1498342295.2,286046894.7,N
1498342315.1,286046894.2,N
1498342316.0,286046894.2,N
1498342335.8,286046894.5,N
1498342355.6,286046892.9,N
1498342375.5,286046892.9,N
1498342395.3,286046895.2,N
1498342415.1,286046892.8,N
1498342435.9,286046892.5,N
1498342455.7,286046894.1,N
1498342475.5,286046898.3,N
1498342495.3,286046898.7,N
1498342515.2,286046896.2,N
1498342535.0,286046900.3,N
1498342535.9,286046900.3,N
1498342555.7,286046901.5,N
1498342575.6,286046903.6,N
1498342595.4,286046904.4,N
1498342615.2,286046907.3,N
1498342635.1,286046911.0,N
1498342636.0,286046911.0,N
1498342655.8,286046909.6,N
1498342675.6,286046911.2,N
1498342695.5,286046912.3,N
1498342715.3,286046914.4,N
1498342735.1,286046918.4,N
1498342755.9,286046921.9,N
1498342775.7,286046922.1,N
1498342795.5,286046922.5,N
1498342815.3,286046923.8,N
1498342835.2,286046923.3,N
1498342855.0,286046923.3,N
1498342855.9,286046923.3,N
1498342875.8,286046925.9,N
1498342895.6,286046923.0,N
1498342915.4,286046922.9,N
1498342935.2,286046925.5,N
1498342955.1,286046922.9,N
1498342956.0,286046922.9,N
1498342975.8,286046924.2,N
1498342995.6,286046923.2,N
1498343015.5,286046923.3,N
1498343035.3,286046925.9,N
1498343055.1,286046923.4,N
1498343075.9,286046922.5,N
1498343095.7,286046922.6,N
1498343115.5,286046922.6,N
1498343135.4,286046921.1,N
1498343155.2,286046918.4,N
1498343175.0,286046918.2,N
1498343175.9,286046918.2,N
1498343195.8,286046918.1,N
1498343215.6,286046919.8,N
1498343235.4,286046922.6,N
1498343255.2,286046920.2,N
1498343275.1,286046919.6,N
1498343276.0,286046919.6,N
1498343295.8,286046916.7,N
1498343315.6,286046917.3,N
1498343335.5,286046917.9,N
1498343355.3,286046915.6,N
1498343375.1,286046915.6,N
1498343395.9,286046915.0,N
1498343415.7,286046913.3,N
1498343435.5,286046913.9,N
1498343455.4,286046912.0,N
1498343475.2,286046914.3,N
1498343495.0,286046913.6,N
1498343495.9,286046913.6,N
1498343515.7,286046918.9,N
1498343535.6,286046924.0,N
1498343555.4,286046921.7,N
1498343575.2,286046921.7,N
1498343595.1,286046921.7,N
1498343596.0,286046921.7,N
1498343615.8,286046921.4,N
1498343635.6,286046925.6,N
1498343655.5,286046925.1,N
1498343675.3,286046926.7,N
1498343695.1,286046928.7,N
1498343715.9,286046930.8,N
1498343735.7,286046927.8,N
1498343755.5,286046927.2,N
1498343775.4,286046926.1,N
1498343795.2,286046930.6,N
1498343815.0,286046932.2,N
1498343815.9,286046932.2,N
1498343835.8,286046929.8,N
1498343855.6,286046930.8,N
1498343875.4,286046930.4,N
1498343895.2,286046928.0,N
1498343915.1,286046928.7,N
1498343916.0,286046928.7,N
1498343935.8,286046927.7,N
1498343955.6,286046928.7,N
1498343975.5,286046929.0,N
1498343995.3,286046922.9,N
1498344015.1,286046925.2,N
1498344035.9,286046921.7,N
1498344055.7,286046921.3,N
1498344075.5,286046922.7,N
1498344095.4,286046922.0,N
1498344115.2,286046923.2,N
1498344135.0,286046925.8,N
1498344135.9,286046925.8,N
1498344155.8,286046926.1,N
1498344175.6,286046928.6,N
1498344195.4,286046929.7,N
1498344215.2,286046927.9,N
1498344235.1,286046928.6,N
1498344236.0,286046928.6,N
1498344255.8,286046928.3,N
1498344275.6,286046928.7,N
1498344295.5,286046926.5,N
1498344315.3,286046927.4,N
1498344335.1,286046927.6,N
1498344355.9,286046924.7,N
1498344375.7,286046925.5,N
1498344395.5,286046925.7,N
1498344415.4,286046921.6,N
1498344435.2,286046921.8,N
1498344455.0,286046921.7,N
1498344455.9,286046921.7,N
1498344475.8,286046922.7,N
1498344495.6,286046917.0,N
1498344515.4,286046919.1,N
1498344535.2,286046922.8,N
1498344555.1,286046919.9,N
1498344556.0,286046919.9,N
1498344575.8,286046924.2,N
1498344595.6,286046924.7,N
1498344615.5,286046925.1,N
1498344635.3,286046922.9,N
1498344655.1,286046924.7,N
1498344675.9,286046923.3,N
1498344695.7,286046925.1,N
1498344715.5,286046926.0,N
1498344735.4,286046923.1,N
1498344755.2,286046923.8,N
1498344775.0,286046926.0,N
1498344775.9,286046926.0,N
1498344795.8,286046924.7,N
1498344815.6,286046925.9,N
1498344835.4,286046923.8,N
1498344855.2,286046926.0,N
1498344875.1,286046921.4,N
1498344876.0,286046921.4,N
1498344895.8,286046922.0,N
1498344915.6,286046922.9,N
1498344935.5,286046927.2,N
1498344955.3,286046924.8,N
1498344975.1,286046923.3,N
1498344995.9,286046925.9,N
1498345015.7,286046925.3,N
1498345035.5,286046923.3,N
1498345055.4,286046923.3,N
1498345075.2,286046926.0,N
1498345095.0,286046929.2,N
1498345095.9,286046929.2,N
1498345115.8,286046930.3,N
1498345135.6,286046930.6,N
1498345155.4,286046927.9,N
1498345175.2,286046928.6,N
1498345195.1,286046927.0,N
1498345196.0,286046927.0,N
